Location: Arbon
(43.0005°N, 0.7472°E)
Time: 03:37:27
(UTC+00:00)

IRS-1C - Pass Details

Date: 07 August 2020
Orbit: 816 x 817 km, 98.8° (Epoch: 27 September)

Event Time Altitude Azimuth Distance (km) Brightness Sun altitude
Rises 02:28:35 0° 15° (NNE) 3,355 8.5 -21.9°
Reaches altitude 10° 02:30:57 10° 18° (NNE) 2,418 7.6 -21.6°
Maximum altitude 02:36:18 74° 103° (ESE) 853 4.2 -21.0°
Enters shadow 02:38:41 34° 181° (S) 1,318 4.8 -20.7°
